| time (UTC) | temp C | wind direction | speed KPH | gust KPH | rain 1hr cm | rain 24hr cm | rain mn cm | humidity % | barometer mb |
| 20260506015126 | 20 | 340 | 0.0 | 0.0 | 0.00 | 0.00 | 0.00 | 53 | 1015.5 |
| 20260506014623 | 20 | 33 | 1.6 | 1.6 | 0.00 | 0.00 | 0.00 | 50 | 1015.3 |
| 20260506014118 | 21 | 348 | 0.0 | 0.0 | 0.00 | 0.00 | 0.00 | 48 | 1015.3 |
| 20260506013617 | 20 | 350 | 1.6 | 3.2 | 0.00 | 0.00 | 0.00 | 48 | 1015.4 |
| 20260506013113 | 20 | 316 | 1.6 | 1.6 | 0.00 | 0.00 | 0.00 | 47 | 1015.4 |
| 20260506012610 | 20 | 340 | 0.0 | 1.6 | 0.00 | 0.00 | 0.00 | 49 | 1015.4 |
| 20260506012106 | 20 | 327 | 4.8 | 4.8 | 0.00 | 0.00 | 0.00 | 49 | 1015.2 |
| 20260506011604 | 20 | 325 | 1.6 | 1.6 | 0.00 | 0.00 | 0.00 | 51 | 1015.3 |
| 20260506011059 | 20 | 317 | 3.2 | 3.2 | 0.00 | 0.00 | 0.00 | 46 | 1015.2 |
| 20260506010554 | 21 | 315 | 1.6 | 1.6 | 0.00 | 0.00 | 0.00 | 45 | 1015.1 |
| 20260506010050 | 21 | 299 | 1.6 | 3.2 | 0.00 | 0.00 | 0.00 | 43 | 1015.1 |
| 20260506005547 | 21 | 315 | 1.6 | 1.6 | 0.00 | 0.00 | 0.00 | 46 | 1015.1 |
| 20260506005043 | 21 | 308 | 3.2 | 3.2 | 0.00 | 0.00 | 0.00 | 46 | 1015.1 |
| 20260506004541 | 21 | 314 | 3.2 | 4.8 | 0.00 | 0.00 | 0.00 | 45 | 1015.3 |
| 20260506004037 | 22 | 291 | 1.6 | 1.6 | 0.00 | 0.00 | 0.00 | 41 | 1015.1 |
| 20260506003534 | 22 | 320 | 1.6 | 3.2 | 0.00 | 0.00 | 0.00 | 40 | 1015.1 |
| 20260506003030 | 22 | 316 | 1.6 | 1.6 | 0.00 | 0.00 | 0.00 | 40 | 1015.1 |
| 20260506002526 | 22 | 17 | 1.6 | 1.6 | 0.00 | 0.00 | 0.00 | 41 | 1014.9 |
| 20260506002022 | 22 | 305 | 1.6 | 1.6 | 0.00 | 0.00 | 0.00 | 39 | 1015.0 |
| 20260506001518 | 23 | 247 | 3.2 | 3.2 | 0.00 | 0.00 | 0.00 | 38 | 1014.9 |
| 20260506001016 | 23 | 311 | 1.6 | 1.6 | 0.00 | 0.00 | 0.00 | 38 | 1014.8 |
| 20260506000514 | 23 | 317 | 1.6 | 1.6 | 0.00 | 0.00 | 0.00 | 38 | 1014.8 |
| 20260506000011 | 23 | 289 | 3.2 | 3.2 | 0.00 | 0.00 | 0.00 | 38 | 1014.6 |
| 20260505235508 | 23 | 40 | 1.6 | 1.6 | 0.00 | 0.00 | 0.00 | 38 | 1014.5 |
| 20260505235004 | 23 | 358 | 1.6 | 1.6 | 0.00 | 0.00 | 0.00 | 38 | 1014.6 |
| 20260505234502 | 23 | 356 | 1.6 | 3.2 | 0.00 | 0.00 | 0.00 | 37 | 1014.5 |
| 20260505233959 | 23 | 298 | 3.2 | 3.2 | 0.00 | 0.00 | 0.00 | 37 | 1014.3 |
| 20260505233456 | 23 | 335 | 0.0 | 0.0 | 0.00 | 0.00 | 0.00 | 36 | 1014.2 |
| 20260505232953 | 23 | 289 | 8.0 | 9.7 | 0.00 | 0.00 | 0.00 | 36 | 1014.5 |
| 20260505232451 | 23 | 268 | 3.2 | 4.8 | 0.00 | 0.00 | 0.00 | 36 | 1014.5 |
| 20260505231948 | 23 | 334 | 4.8 | 4.8 | 0.00 | 0.00 | 0.00 | 36 | 1014.5 |
| 20260505231446 | 23 | 282 | 4.8 | 4.8 | 0.00 | 0.00 | 0.00 | 36 | 1014.6 |
| 20260505230944 | 24 | 264 | 4.8 | 4.8 | 0.00 | 0.00 | 0.00 | 36 | 1014.4 |
| 20260505230441 | 24 | 341 | 3.2 | 4.8 | 0.00 | 0.00 | 0.00 | 35 | 1014.3 |
| 20260505225937 | 24 | 269 | 8.0 | 12.9 | 0.00 | 0.00 | 0.00 | 35 | 1014.3 |
| 20260505225435 | 24 | 272 | 6.4 | 9.7 | 0.00 | 0.00 | 0.00 | 34 | 1014.6 |
| 20260505224930 | 25 | 255 | 3.2 | 4.8 | 0.00 | 0.00 | 0.00 | 34 | 1014.7 |
| 20260505224427 | 25 | 285 | 11.3 | 12.9 | 0.00 | 0.00 | 0.00 | 34 | 1014.6 |
| 20260505223924 | 25 | 328 | 8.0 | 12.9 | 0.00 | 0.00 | 0.00 | 34 | 1014.5 |
| 20260505223421 | 25 | 30 | 1.6 | 3.2 | 0.00 | 0.00 | 0.00 | 34 | 1014.7 |
| 20260505222918 | 25 | 276 | 3.2 | 4.8 | 0.00 | 0.00 | 0.00 | 33 | 1014.5 |
| 20260505222414 | 25 | 339 | 4.8 | 4.8 | 0.00 | 0.00 | 0.00 | 33 | 1014.5 |
| 20260505221910 | 25 | 341 | 8.0 | 9.7 | 0.00 | 0.00 | 0.00 | 32 | 1014.6 |
| 20260505221408 | 25 | 284 | 6.4 | 9.7 | 0.00 | 0.00 | 0.00 | 32 | 1014.5 |
| 20260505220904 | 25 | 297 | 9.7 | 12.9 | 0.00 | 0.00 | 0.00 | 32 | 1014.6 |
| 20260505220401 | 25 | 321 | 4.8 | 4.8 | 0.00 | 0.00 | 0.00 | 31 | 1014.7 |
| 20260505215859 | 25 | 254 | 6.4 | 9.7 | 0.00 | 0.00 | 0.00 | 30 | 1014.7 |
| 20260505215357 | 25 | 319 | 3.2 | 3.2 | 0.00 | 0.00 | 0.00 | 30 | 1014.4 |
| 20260505214855 | 25 | 339 | 1.6 | 1.6 | 0.00 | 0.00 | 0.00 | 30 | 1014.6 |
| 20260505214352 | 25 | 292 | 3.2 | 4.8 | 0.00 | 0.00 | 0.00 | 29 | 1014.4 |
| 20260505213849 | 26 | 64 | 4.8 | 4.8 | 0.00 | 0.00 | 0.00 | 29 | 1014.3 |
| 20260505213347 | 26 | 11 | 1.6 | 1.6 | 0.00 | 0.00 | 0.00 | 29 | 1014.7 |
| 20260505212843 | 26 | 71 | 1.6 | 3.2 | 0.00 | 0.00 | 0.00 | 28 | 1014.3 |
| 20260505212340 | 26 | 327 | 6.4 | 12.9 | 0.00 | 0.00 | 0.00 | 27 | 1014.5 |
| 20260505211836 | 26 | 279 | 9.7 | 14.5 | 0.00 | 0.00 | 0.00 | 26 | 1014.6 |
| 20260505211334 | 26 | 291 | 6.4 | 12.9 | 0.00 | 0.00 | 0.00 | 26 | 1014.6 |
| 20260505210830 | 26 | 284 | 1.6 | 3.2 | 0.00 | 0.00 | 0.00 | 26 | 1014.6 |
| 20260505210327 | 26 | 336 | 1.6 | 3.2 | 0.00 | 0.00 | 0.00 | 26 | 1014.5 |
| 20260505205824 | 26 | 267 | 4.8 | 4.8 | 0.00 | 0.00 | 0.00 | 25 | 1014.6 |
| 20260505205322 | 27 | 278 | 3.2 | 4.8 | 0.00 | 0.00 | 0.00 | 25 | 1014.5 |
| 20260505204818 | 26 | 292 | 8.0 | 11.3 | 0.00 | 0.00 | 0.00 | 24 | 1014.8 |
| 20260505204317 | 26 | 272 | 6.4 | 9.7 | 0.00 | 0.00 | 0.00 | 23 | 1015.0 |
| 20260505203814 | 26 | 165 | 4.8 | 4.8 | 0.00 | 0.00 | 0.00 | 23 | 1014.7 |
| 20260505203310 | 26 | 324 | 1.6 | 1.6 | 0.00 | 0.00 | 0.00 | 25 | 1014.5 |
| 20260505202806 | 26 | 277 | 6.4 | 8.0 | 0.00 | 0.00 | 0.00 | 24 | 1014.4 |
| 20260505202306 | 27 | 105 | 6.4 | 8.0 | 0.00 | 0.00 | 0.00 | 26 | 1014.4 |
| 20260505201800 | 27 | 342 | 4.8 | 4.8 | 0.00 | 0.00 | 0.00 | 24 | 1014.4 |
| 20260505201257 | 27 | 325 | 1.6 | 1.6 | 0.00 | 0.00 | 0.00 | 23 | 1014.5 |
| 20260505200755 | 27 | 358 | 6.4 | 9.7 | 0.00 | 0.00 | 0.00 | 24 | 1014.8 |
| 20260505200252 | 27 | 313 | 16.1 | 20.9 | 0.00 | 0.00 | 0.00 | 24 | 1014.5 |
| 20260505195747 | 27 | 275 | 8.0 | 11.3 | 0.00 | 0.00 | 0.00 | 24 | 1014.5 |
| 20260505195245 | 28 | 305 | 1.6 | 1.6 | 0.00 | 0.00 | 0.00 | 23 | 1014.4 |
| 20260505194742 | 27 | 304 | 8.0 | 11.3 | 0.00 | 0.00 | 0.00 | 25 | 1014.4 |
| 20260505194238 | 27 | 253 | 1.6 | 1.6 | 0.00 | 0.00 | 0.00 | 25 | 1014.7 |
| 20260505193734 | 27 | 286 | 6.4 | 9.7 | 0.00 | 0.00 | 0.00 | 25 | 1014.7 |
| 20260505193232 | 27 | 246 | 8.0 | 9.7 | 0.00 | 0.00 | 0.00 | 24 | 1014.7 |
| 20260505192730 | 28 | 300 | 9.7 | 12.9 | 0.00 | 0.00 | 0.00 | 24 | 1014.5 |
| 20260505192228 | 27 | 225 | 8.0 | 11.3 | 0.00 | 0.00 | 0.00 | 24 | 1014.9 |
| 20260505191726 | 27 | 183 | 4.8 | 11.3 | 0.00 | 0.00 | 0.00 | 26 | 1014.6 |
| 20260505191224 | 27 | 287 | 3.2 | 4.8 | 0.00 | 0.00 | 0.00 | 26 | 1014.7 |
| 20260505190720 | 27 | 299 | 17.7 | 20.9 | 0.00 | 0.00 | 0.00 | 26 | 1014.6 |
| 20260505190219 | 27 | 251 | 8.0 | 9.7 | 0.00 | 0.00 | 0.00 | 26 | 1014.8 |
| 20260505185716 | 27 | 228 | 9.7 | 14.5 | 0.00 | 0.00 | 0.00 | 26 | 1015.0 |
| 20260505185213 | 27 | 132 | 6.4 | 9.7 | 0.00 | 0.00 | 0.00 | 27 | 1015.0 |
| 20260505184709 | 27 | 251 | 6.4 | 9.7 | 0.00 | 0.00 | 0.00 | 27 | 1014.7 |
| 20260505184207 | 27 | 325 | 14.5 | 20.9 | 0.00 | 0.00 | 0.00 | 25 | 1015.2 |
| 20260505183703 | 27 | 276 | 8.0 | 9.7 | 0.00 | 0.00 | 0.00 | 28 | 1015.2 |
| 20260505183201 | 28 | 305 | 4.8 | 4.8 | 0.00 | 0.00 | 0.00 | 29 | 1015.2 |
| 20260505182656 | 27 | 6 | 4.8 | 8.0 | 0.00 | 0.00 | 0.00 | 28 | 1015.2 |
| 20260505182154 | 27 | 274 | 4.8 | 8.0 | 0.00 | 0.00 | 0.00 | 30 | 1015.2 |
| 20260505181650 | 27 | 259 | 3.2 | 3.2 | 0.00 | 0.00 | 0.00 | 30 | 1015.3 |
| 20260505181148 | 27 | 329 | 4.8 | 9.7 | 0.00 | 0.00 | 0.00 | 30 | 1015.3 |
| 20260505180644 | 27 | 247 | 8.0 | 11.3 | 0.00 | 0.00 | 0.00 | 30 | 1015.4 |
| 20260505180141 | 27 | 271 | 1.6 | 1.6 | 0.00 | 0.00 | 0.00 | 31 | 1015.4 |
| 20260505175637 | 27 | 290 | 4.8 | 4.8 | 0.00 | 0.00 | 0.00 | 31 | 1015.6 |
| 20260505175133 | 26 | 271 | 3.2 | 3.2 | 0.00 | 0.00 | 0.00 | 33 | 1015.5 |
| 20260505174630 | 26 | 292 | 6.4 | 11.3 | 0.00 | 0.00 | 0.00 | 33 | 1015.7 |
| 20260505174126 | 25 | 86 | 1.6 | 3.2 | 0.00 | 0.00 | 0.00 | 34 | 1015.6 |
| 20260505173623 | 25 | 341 | 3.2 | 3.2 | 0.00 | 0.00 | 0.00 | 35 | 1015.9 |
| 20260505173120 | 26 | 219 | 4.8 | 4.8 | 0.00 | 0.00 | 0.00 | 34 | 1016.0 |
| 20260505172618 | 26 | 279 | 3.2 | 3.2 | 0.00 | 0.00 | 0.00 | 33 | 1015.8 |
| 20260505172114 | 26 | 274 | 6.4 | 8.0 | 0.00 | 0.00 | 0.00 | 33 | 1016.0 |
| 20260505171609 | 26 | 255 | 8.0 | 9.7 | 0.00 | 0.00 | 0.00 | 35 | 1016.0 |
| 20260505171106 | 26 | 273 | 4.8 | 8.0 | 0.00 | 0.00 | 0.00 | 34 | 1016.0 |
| 20260505170603 | 25 | 196 | 3.2 | 8.0 | 0.00 | 0.00 | 0.00 | 35 | 1016.0 |
| 20260505170059 | 25 | 308 | 6.4 | 9.7 | 0.00 | 0.00 | 0.00 | 36 | 1016.5 |
| 20260505165554 | 24 | 325 | 3.2 | 3.2 | 0.00 | 0.00 | 0.00 | 37 | 1016.4 |
| 20260505165051 | 24 | 5 | 4.8 | 4.8 | 0.00 | 0.00 | 0.00 | 38 | 1016.6 |
| 20260505164546 | 25 | 277 | 11.3 | 14.5 | 0.00 | 0.00 | 0.00 | 37 | 1016.4 |
| 20260505164044 | 25 | 346 | 8.0 | 12.9 | 0.00 | 0.00 | 0.00 | 37 | 1016.5 |
| 20260505163542 | 25 | 211 | 4.8 | 8.0 | 0.00 | 0.00 | 0.00 | 37 | 1016.6 |
| 20260505163039 | 25 | 250 | 4.8 | 4.8 | 0.00 | 0.00 | 0.00 | 37 | 1016.9 |
| 20260505162532 | 25 | 333 | 4.8 | 4.8 | 0.00 | 0.00 | 0.00 | 37 | 1016.8 |
| 20260505162029 | 24 | 323 | 1.6 | 3.2 | 0.00 | 0.00 | 0.00 | 38 | 1016.9 |
| 20260505161526 | 25 | 252 | 14.5 | 20.9 | 0.00 | 0.00 | 0.00 | 38 | 1017.1 |
| 20260505161023 | 25 | 1 | 6.4 | 8.0 | 0.00 | 0.00 | 0.00 | 39 | 1017.0 |
| 20260505160521 | 24 | 15 | 3.2 | 4.8 | 0.00 | 0.00 | 0.00 | 39 | 1017.2 |
| 20260505152957 | 24 | 182 | 3.2 | 3.2 | 0.00 | 0.00 | 0.00 | 40 | 1017.0 |
| 20260505152455 | 23 | 248 | 8.0 | 9.7 | 0.00 | 0.00 | 0.00 | 40 | 1017.3 |
| 20260505151950 | 23 | 336 | 1.6 | 3.2 | 0.00 | 0.00 | 0.00 | 40 | 1017.1 |
| 20260505151445 | 23 | 277 | 11.3 | 14.5 | 0.00 | 0.00 | 0.00 | 39 | 1017.0 |
| 20260505150943 | 24 | 242 | 4.8 | 9.7 | 0.00 | 0.00 | 0.00 | 38 | 1017.1 |
| 20260505150440 | 24 | 271 | 8.0 | 11.3 | 0.00 | 0.00 | 0.00 | 39 | 1016.9 |
| 20260505140410 | 23 | 264 | 11.3 | 16.1 | 0.00 | 0.00 | 0.00 | 43 | 1017.1 |
| 20260505124823 | 17 | 12 | 0.0 | 0.0 | 0.00 | 0.00 | 0.00 | 70 | 1017.3 |
| 20260505124320 | 16 | 185 | 3.2 | 3.2 | 0.00 | 0.00 | 0.00 | 71 | 1017.3 |
| 20260505123816 | 16 | 4 | 0.0 | 0.0 | 0.00 | 0.00 | 0.00 | 73 | 1017.5 |
| 20260505123313 | 16 | 20 | 1.6 | 1.6 | 0.00 | 0.00 | 0.00 | 75 | 1017.5 |
| 20260505122809 | 15 | 269 | 1.6 | 1.6 | 0.00 | 0.00 | 0.00 | 75 | 1017.4 |
| 20260505122307 | 15 | 328 | 0.0 | 0.0 | 0.00 | 0.00 | 0.00 | 78 | 1017.6 |
| 20260505121803 | 14 | 0 | 1.6 | 1.6 | 0.00 | 0.00 | 0.00 | 79 | 1017.5 |
| 20260505121300 | 13 | 308 | 0.0 | 0.0 | 0.00 | 0.00 | 0.00 | 81 | 1017.7 |
| 20260505120756 | 13 | 7 | 1.6 | 1.6 | 0.00 | 0.00 | 0.00 | 83 | 1017.6 |
| 20260505120252 | 12 | 351 | 0.0 | 0.0 | 0.00 | 0.00 | 0.00 | 84 | 1017.9 |
| 20260505115751 | 12 | 34 | 1.6 | 1.6 | 0.00 | 0.00 | 0.00 | 85 | 1018.0 |
| 20260505115249 | 12 | 351 | 0.0 | 0.0 | 0.00 | 0.00 | 0.00 | 86 | 1017.6 |
| 20260505114746 | 12 | 11 | 0.0 | 0.0 | 0.00 | 0.00 | 0.00 | 86 | 1018.1 |
| 20260505114242 | 12 | 346 | 0.0 | 0.0 | 0.00 | 0.00 | 0.00 | 86 | 1017.9 |
| 20260505113739 | 11 | 348 | 0.0 | 0.0 | 0.00 | 0.00 | 0.00 | 90 | 1017.9 |
| 20260505113235 | 11 | 343 | 0.0 | 0.0 | 0.00 | 0.00 | 0.00 | 91 | 1018.2 |
| 20260505112731 | 11 | 345 | 0.0 | 0.0 | 0.00 | 0.00 | 0.00 | 94 | 1018.0 |
| 20260505112229 | 10 | 340 | 0.0 | 0.0 | 0.00 | 0.00 | 0.00 | 95 | 1018.0 |
| 20260505111729 | 10 | 187 | 1.6 | 3.2 | 0.00 | 0.00 | 0.00 | 96 | 1017.9 |
| 20260505111225 | 10 | 343 | 0.0 | 0.0 | 0.00 | 0.00 | 0.00 | 96 | 1018.0 |
| 20260505110721 | 10 | 338 | 0.0 | 0.0 | 0.00 | 0.00 | 0.00 | 96 | 1017.8 |
| 20260505110219 | 10 | 340 | 0.0 | 0.0 | 0.00 | 0.00 | 0.00 | 96 | 1017.8 |
| 20260505102154 | 9 | 338 | 0.0 | 0.0 | 0.00 | 0.00 | 0.00 | 96 | 1017.2 |
| 20260505101653 | 9 | 344 | 0.0 | 0.0 | 0.00 | 0.00 | 0.00 | 96 | 1017.2 |
| 20260505101149 | 9 | 342 | 0.0 | 0.0 | 0.00 | 0.00 | 0.00 | 96 | 1017.5 |
| 20260505100645 | 9 | 328 | 0.0 | 0.0 | 0.00 | 0.00 | 0.00 | 96 | 1017.4 |
| 20260505100142 | 9 | 340 | 0.0 | 0.0 | 0.00 | 0.00 | 0.00 | 95 | 1017.0 |
| 20260505095638 | 9 | 346 | 0.0 | 0.0 | 0.00 | 0.00 | 0.00 | 95 | 1016.9 |
| 20260505095136 | 9 | 344 | 0.0 | 0.0 | 0.00 | 0.00 | 0.00 | 95 | 1017.1 |
| 20260505094631 | 9 | 341 | 0.0 | 0.0 | 0.00 | 0.00 | 0.00 | 95 | 1016.7 |
| 20260505094128 | 10 | 344 | 0.0 | 0.0 | 0.00 | 0.00 | 0.00 | 95 | 1017.0 |
| 20260505093624 | 10 | 333 | 0.0 | 0.0 | 0.00 | 0.00 | 0.00 | 94 | 1017.0 |
| 20260505093122 | 10 | 340 | 0.0 | 0.0 | 0.00 | 0.00 | 0.00 | 94 | 1017.1 |
| 20260505092619 | 10 | 334 | 0.0 | 0.0 | 0.00 | 0.00 | 0.00 | 94 | 1016.9 |
| 20260505092118 | 10 | 299 | 1.6 | 3.2 | 0.00 | 0.00 | 0.00 | 94 | 1017.0 |
| 20260505091613 | 10 | 315 | 1.6 | 1.6 | 0.00 | 0.00 | 0.00 | 94 | 1017.1 |
| 20260505091112 | 10 | 333 | 0.0 | 0.0 | 0.00 | 0.00 | 0.00 | 93 | 1016.9 |
| 20260505090610 | 10 | 340 | 0.0 | 0.0 | 0.00 | 0.00 | 0.00 | 93 | 1016.9 |
| 20260505090108 | 10 | 345 | 0.0 | 1.6 | 0.00 | 0.00 | 0.00 | 93 | 1016.7 |
| 20260505085605 | 10 | 338 | 0.0 | 0.0 | 0.00 | 0.00 | 0.00 | 92 | 1016.6 |
| 20260505085103 | 10 | 323 | 0.0 | 1.6 | 0.00 | 0.00 | 0.00 | 92 | 1016.5 |
| 20260505084600 | 10 | 315 | 1.6 | 1.6 | 0.00 | 0.00 | 0.00 | 91 | 1016.3 |
| 20260505084058 | 10 | 324 | 1.6 | 1.6 | 0.00 | 0.00 | 0.00 | 91 | 1016.4 |
| 20260505083555 | 10 | 352 | 1.6 | 1.6 | 0.00 | 0.00 | 0.00 | 91 | 1016.2 |
| 20260505083052 | 10 | 352 | 1.6 | 1.6 | 0.00 | 0.00 | 0.00 | 91 | 1016.3 |
| 20260505082548 | 10 | 354 | 0.0 | 0.0 | 0.00 | 0.00 | 0.00 | 91 | 1016.5 |
| 20260505082045 | 10 | 3 | 0.0 | 0.0 | 0.00 | 0.00 | 0.00 | 90 | 1016.5 |
| 20260505081541 | 10 | 349 | 0.0 | 0.0 | 0.00 | 0.00 | 0.00 | 89 | 1016.2 |
| 20260505081038 | 10 | 336 | 0.0 | 0.0 | 0.00 | 0.00 | 0.00 | 89 | 1016.6 |
| 20260505080534 | 10 | 327 | 0.0 | 0.0 | 0.00 | 0.00 | 0.00 | 90 | 1016.6 |
| 20260505080031 | 10 | 333 | 0.0 | 0.0 | 0.00 | 0.00 | 0.00 | 90 | 1016.7 |
| 20260505075527 | 10 | 336 | 0.0 | 0.0 | 0.00 | 0.00 | 0.00 | 90 | 1016.6 |
| 20260505075024 | 10 | 334 | 0.0 | 0.0 | 0.00 | 0.00 | 0.00 | 90 | 1016.7 |
| 20260505074521 | 10 | 3 | 0.0 | 0.0 | 0.00 | 0.00 | 0.00 | 90 | 1016.6 |
| 20260505074019 | 10 | 326 | 0.0 | 0.0 | 0.00 | 0.00 | 0.00 | 90 | 1016.5 |
| 20260505073516 | 10 | 349 | 0.0 | 0.0 | 0.00 | 0.00 | 0.00 | 89 | 1016.5 |
| 20260505073014 | 10 | 342 | 0.0 | 0.0 | 0.00 | 0.00 | 0.00 | 88 | 1016.7 |
| 20260505072509 | 11 | 340 | 0.0 | 0.0 | 0.00 | 0.00 | 0.00 | 88 | 1016.4 |
| 20260505072006 | 10 | 341 | 0.0 | 0.0 | 0.00 | 0.00 | 0.00 | 88 | 1016.2 |
| 20260505071501 | 11 | 341 | 0.0 | 0.0 | 0.00 | 0.00 | 0.00 | 88 | 1016.3 |
| 20260505071000 | 11 | 340 | 0.0 | 0.0 | 0.00 | 0.00 | 0.00 | 87 | 1016.0 |
| 20260505070456 | 11 | 339 | 0.0 | 0.0 | 0.00 | 0.00 | 0.00 | 86 | 1015.9 |
| 20260505065952 | 11 | 340 | 0.0 | 0.0 | 0.00 | 0.00 | 0.00 | 85 | 1015.9 |
| 20260505065448 | 11 | 334 | 0.0 | 0.0 | 0.00 | 0.00 | 0.00 | 86 | 1016.2 |
| 20260505064945 | 11 | 331 | 0.0 | 0.0 | 0.00 | 0.00 | 0.00 | 86 | 1016.0 |
| 20260505064442 | 11 | 331 | 0.0 | 0.0 | 0.00 | 0.00 | 0.00 | 85 | 1015.9 |
| 20260505063941 | 11 | 336 | 0.0 | 0.0 | 0.00 | 0.00 | 0.00 | 85 | 1016.2 |
| 20260505063437 | 11 | 336 | 0.0 | 0.0 | 0.00 | 0.00 | 0.00 | 85 | 1016.3 |
| 20260505062933 | 11 | 332 | 0.0 | 0.0 | 0.00 | 0.00 | 0.00 | 85 | 1016.2 |
| 20260505062431 | 11 | 332 | 0.0 | 0.0 | 0.00 | 0.00 | 0.00 | 84 | 1016.3 |
| 20260505061927 | 11 | 345 | 0.0 | 0.0 | 0.00 | 0.00 | 0.00 | 83 | 1016.3 |
| 20260505061426 | 11 | 330 | 0.0 | 0.0 | 0.00 | 0.00 | 0.00 | 83 | 1015.9 |
| 20260505060923 | 12 | 330 | 0.0 | 0.0 | 0.00 | 0.00 | 0.00 | 82 | 1016.3 |
| 20260505060420 | 12 | 330 | 0.0 | 0.0 | 0.00 | 0.00 | 0.00 | 82 | 1015.9 |
| 20260505055916 | 12 | 330 | 0.0 | 0.0 | 0.00 | 0.00 | 0.00 | 82 | 1016.0 |
| 20260505055412 | 12 | 330 | 0.0 | 0.0 | 0.00 | 0.00 | 0.00 | 82 | 1016.4 |
| 20260505054909 | 12 | 330 | 0.0 | 0.0 | 0.00 | 0.00 | 0.00 | 82 | 1016.4 |
| 20260505054406 | 12 | 330 | 0.0 | 0.0 | 0.00 | 0.00 | 0.00 | 81 | 1016.4 |
| 20260505053904 | 12 | 330 | 0.0 | 0.0 | 0.00 | 0.00 | 0.00 | 80 | 1016.5 |
| 20260505053401 | 13 | 330 | 0.0 | 0.0 | 0.00 | 0.00 | 0.00 | 78 | 1016.4 |
| 20260505052858 | 13 | 330 | 0.0 | 0.0 | 0.00 | 0.00 | 0.00 | 78 | 1016.4 |
| 20260505052355 | 12 | 321 | 1.6 | 1.6 | 0.00 | 0.00 | 0.00 | 79 | 1016.5 |
| 20260505051852 | 12 | 330 | 0.0 | 0.0 | 0.00 | 0.00 | 0.00 | 80 | 1016.3 |
| 20260505051349 | 12 | 330 | 0.0 | 0.0 | 0.00 | 0.00 | 0.00 | 80 | 1016.4 |
| 20260505050847 | 13 | 330 | 0.0 | 0.0 | 0.00 | 0.00 | 0.00 | 79 | 1016.4 |
| 20260505050346 | 13 | 330 | 0.0 | 0.0 | 0.00 | 0.00 | 0.00 | 78 | 1016.5 |
| 20260505041313 | 15 | 325 | 1.6 | 3.2 | 0.00 | 0.00 | 0.00 | 71 | 1016.3 |
| 20260505040810 | 15 | 308 | 1.6 | 1.6 | 0.00 | 0.00 | 0.00 | 71 | 1016.3 |
| 20260505040307 | 15 | 334 | 0.0 | 0.0 | 0.00 | 0.00 | 0.00 | 70 | 1016.3 |
| 20260505035804 | 15 | 330 | 1.6 | 1.6 | 0.00 | 0.00 | 0.00 | 69 | 1016.3 |
| 20260505035259 | 15 | 332 | 0.0 | 1.6 | 0.00 | 0.00 | 0.00 | 69 | 1016.3 |
| 20260505034757 | 15 | 342 | 0.0 | 0.0 | 0.00 | 0.00 | 0.00 | 71 | 1016.5 |
| 20260505034254 | 15 | 339 | 0.0 | 0.0 | 0.00 | 0.00 | 0.00 | 73 | 1016.3 |
| 20260505033750 | 16 | 343 | 0.0 | 0.0 | 0.00 | 0.00 | 0.00 | 68 | 1016.3 |
| 20260505033248 | 17 | 288 | 4.8 | 8.0 | 0.00 | 0.00 | 0.00 | 60 | 1016.0 |
| 20260505032746 | 17 | 332 | 3.2 | 3.2 | 0.00 | 0.00 | 0.00 | 61 | 1016.3 |
| 20260505032241 | 17 | 340 | 0.0 | 0.0 | 0.00 | 0.00 | 0.00 | 65 | 1016.3 |
| 20260505031739 | 16 | 319 | 1.6 | 3.2 | 0.00 | 0.00 | 0.00 | 68 | 1016.2 |
| 20260505031235 | 16 | 343 | 0.0 | 0.0 | 0.00 | 0.00 | 0.00 | 66 | 1016.3 |
| 20260505030732 | 16 | 330 | 0.0 | 0.0 | 0.00 | 0.00 | 0.00 | 69 | 1016.3 |
| 20260505030228 | 16 | 324 | 1.6 | 1.6 | 0.00 | 0.00 | 0.00 | 67 | 1016.4 |
| 20260505025724 | 15 | 325 | 1.6 | 3.2 | 0.00 | 0.00 | 0.00 | 68 | 1016.2 |
| 20260505025223 | 15 | 324 | 3.2 | 3.2 | 0.00 | 0.00 | 0.00 | 71 | 1016.4 |
| 20260505024720 | 15 | 327 | 0.0 | 0.0 | 0.00 | 0.00 | 0.00 | 71 | 1016.3 |
| 20260505024217 | 15 | 331 | 0.0 | 1.6 | 0.00 | 0.00 | 0.00 | 73 | 1016.4 |
| 20260505023715 | 15 | 318 | 0.0 | 1.6 | 0.00 | 0.00 | 0.00 | 72 | 1016.4 |
| 20260505023212 | 15 | 336 | 0.0 | 0.0 | 0.00 | 0.00 | 0.00 | 71 | 1016.5 |
| 20260505022709 | 15 | 331 | 0.0 | 1.6 | 0.00 | 0.00 | 0.00 | 71 | 1016.7 |
| 20260505022206 | 15 | 329 | 0.0 | 1.6 | 0.00 | 0.00 | 0.00 | 72 | 1016.7 |
| 20260505021703 | 15 | 325 | 0.0 | 0.0 | 0.00 | 0.00 | 0.00 | 72 | 1016.6 |
| 20260505021200 | 15 | 326 | 0.0 | 0.0 | 0.00 | 0.00 | 0.00 | 72 | 1016.4 |
| 20260505020655 | 15 | 315 | 1.6 | 1.6 | 0.00 | 0.00 | 0.00 | 72 | 1016.3 |
| 20260505020151 | 15 | 324 | 0.0 | 0.0 | 0.00 | 0.00 | 0.00 | 72 | 1016.6 |
| 20260505015649 | 15 | 320 | 0.0 | 0.0 | 0.00 | 0.00 | 0.00 | 71 | 1016.4 |